Flag for Germany Weather past 2 weeks in Nordkirchen, North Rhine-Westphalia, Germany

Now
54 °F

Clear.


Feels Like: 49 °F
Forecast: 47 / 69 °F
Wind: 15 mph from Northeast

Location: Muenster / Osnabrueck


UV Index: 3 (Moderate)

Visibility: 10 mi


Pressure: 29.92 "Hg

Humidity: 77%

Dew point: 46 °F

Location of NordkirchenLocation

Historic Weather in Nordkirchen

°F

Nordkirchen temperature yesterday

Maximum temperature yesterday: 61 °F (at 3:20 PM)
Minimum temperature yesterday: 39 °F (at 6:20 AM)
Average temperature yesterday: 51 °F

Past Weeks' High & Low Weather Summary

 TemperatureHumidityPressure
High70 °F (Apr 7, 3:50 PM)100% (Apr 5, 12:20 AM)30.48 "Hg (Apr 5, 12:20 AM)
Low28 °F (Apr 16, 6:20 AM)29% (Apr 17, 3:50 PM)29.71 "Hg (Apr 7, 11:50 PM)
Average51 °F74%30.07 "Hg
* Reported Apr 5 12:20 AM — Apr 20 12:50 AM, Nordkirchen, Weather by CustomWeather, © 2014

Note: Actual official high and low records may vary slightly from our data, if they occured in-between our weather recording intervals... More about our weather records

Advertising

Historic Weather Conditions — Data for Previous 24 hours

 ConditionsComfort  
Time TempWeatherWind HumidityBarometerVisibility
12:50 AM
Apr 20
54 °FClear.14 mph77%29.95 "Hg10 mi
12:20 AM54 °FClear.13 mph77%29.95 "Hg10 mi
11:50 PM
Apr 19
55 °FClear.13 mph72%29.95 "Hg10 mi
11:20 PM55 °FClear.14 mph72%29.95 "Hg10 mi
10:50 PM55 °FClear.14 mph72%29.95 "Hg10 mi
10:20 PM55 °FClear.13 mph72%29.98 "Hg10 mi
9:50 PM55 °FClear.6 mph67%29.98 "Hg10 mi
9:20 PM55 °FSunny.9 mph67%29.98 "Hg10 mi
8:50 PM57 °FSunny.9 mph63%29.98 "Hg10 mi
8:20 PM59 °FSunny.12 mph59%29.98 "Hg10 mi
7:50 PM59 °FSunny.10 mph59%29.98 "Hg10 mi
7:20 PM59 °FSunny.15 mph59%29.98 "Hg10 mi
6:50 PM61 °FScattered clouds.13 mph55%29.98 "HgN/A
6:20 PM61 °FScattered clouds.16 mph55%29.98 "HgN/A
5:50 PM61 °FScattered clouds.15 mph55%29.98 "HgN/A
5:20 PM59 °FPassing clouds.14 mph55%30.01 "HgN/A
4:50 PM59 °FSunny.18 mph51%30.01 "Hg10 mi
4:20 PM61 °FSunny.16 mph52%30.01 "Hg10 mi
3:50 PM59 °FSunny.16 mph51%30.04 "Hg10 mi
3:20 PM61 °FPassing clouds.17 mph59%30.04 "HgN/A
2:50 PM59 °FPassing clouds.16 mph48%30.07 "HgN/A
2:20 PM57 °FPassing clouds.13 mph59%30.07 "HgN/A
1:50 PM57 °FPassing clouds.16 mph51%30.07 "HgN/A
1:20 PM55 °FPassing clouds.12 mph55%30.07 "HgN/A
12:50 PM57 °FPassing clouds.13 mph55%30.09 "HgN/A
12:20 PM55 °FPassing clouds.13 mph59%30.09 "HgN/A
11:50 AM54 °FPassing clouds.14 mph63%30.09 "HgN/A
11:20 AM52 °FPassing clouds.10 mph62%30.09 "HgN/A
10:50 AM52 °FPassing clouds.9 mph62%30.09 "HgN/A
10:20 AM50 °FPassing clouds.9 mph67%30.09 "HgN/A
9:50 AM48 °FPassing clouds.9 mph76%30.09 "HgN/A
9:20 AM46 °FPassing clouds.10 mph82%30.12 "HgN/A
8:50 AM46 °FPassing clouds.12 mph76%30.09 "HgN/A
8:20 AM45 °FPassing clouds.12 mph81%30.09 "HgN/A
7:50 AM43 °FPassing clouds.7 mph87%30.07 "HgN/A
7:20 AM41 °FPassing clouds.6 mph93%30.07 "HgN/A
6:50 AM39 °FPassing clouds.6 mph100%30.04 "HgN/A
6:20 AM39 °FPassing clouds.3 mph93%30.04 "HgN/A
5:50 AM43 °FPassing clouds.7 mph87%30.04 "HgN/A
5:20 AM43 °FPartly cloudy.6 mph93%30.04 "HgN/A
4:50 AM43 °FPassing clouds.6 mph93%30.01 "HgN/A
4:20 AM43 °FPassing clouds.8 mph93%30.01 "HgN/A
3:50 AM43 °FPassing clouds.5 mph93%30.01 "HgN/A
3:20 AM43 °FPassing clouds.5 mph93%30.01 "HgN/A
2:50 AM43 °FPassing clouds.7 mph93%29.98 "HgN/A
2:20 AM43 °FPartly cloudy.8 mph87%29.98 "HgN/A
1:50 AM43 °FPassing clouds.9 mph87%29.98 "HgN/A
1:20 AM45 °FPassing clouds.7 mph87%29.98 "HgN/A
Weather by CustomWeather, © 2014

See weather overview